Погода Марково

Погода Марково : погода сейчас, прогноз погоды и архив. Всё, что Вы хотите узнать о погоде Марково!

Хотите узнать прогноз погоды Марково? Тогда Вам сюда: Погода Марково

Поиск расширенной информации на нашем сайте:

Другие новости

Новости СМИ2

Главная страница сайта

Новости сайта

03.07.2017

Напоминаем, что на нашем специализированном сайте Метеоцентр.Азия вы можете получить высокодетализированные автоматические прогнозы погоды по пунктам России, СНГ и мира в авиационном формате (включающие направление и скорость ветра, видимость, явления погоды, количество и форму облачности, нижнюю и верхнюю границу облачности).


Погода Марково - сегодня

Время (UTC), дата Ветер
(°,м/с) 
Видим.   Явления Облачность Т
(°С)
Тd
(°С)
f(%) Тe
(°С)
Pmin
(гПа)
dP
(гПа)
Po
(мм)
O2
(г/м3)
Тmin Tmax R s Состояние
почвы
03 23.05.18 040 (СВ) 4{09}  20000 м    3/1 600 м средняя, верхняя 
[Cu hum|Ac trans|Ci fib]
+3.3 -2.7 65 +1  1007.7  -0.2  754  300           
09 23.05.18 050 (СВ) 2{07}  20000 м    ясно 
+2 -3.4 67 +1  1008.3  0.7  754  302           
12 23.05.18 360 (С) 1{04}  20000 м    ясно 
-4 -4.9 93 -4  1008.5  0.1  754  309           
15 23.05.18 100 (В) 1{03}  20000 м    ясно 
-6.4 -7.2 94 -6  1008.6  0.1  754  312           
21 23.05.18 180 (Ю) 2{03}  20000 м    3/0 верхняя 
[Ci fib]
+2.8 -3 66 +2  1008.8  0.2  754  301           
00 24.05.18 210 (ЮЗ) 2{04}  20000 м    3/0 верхняя 
[Ci fib]
+4.2 -3 59 +4  1008.9  0.1  755  300           
03 24.05.18 210 (ЮЗ) 2{04}  20000 м    3/0 верхняя 
[Ci fib]
+4.8 -4.3 52 +4  1008.9  755  299           
09 24.05.18 180 (Ю) 1{03}  20000 м    8/0 верхняя 
[Ci]
+3.6 -3 62 +4  1009.7  0.6  755  301           
12 24.05.18 тихо () {02}  20000 м    10/0 верхняя 
[Cs]
-3.3 -4.4 92 -3  1010.8  0.9  756  309           
15 24.05.18 300 (СЗ) 1{03}  20000 м    10/0 средняя, верхняя 
[Ac trans|Cs]
-4.1 -4.6 96 -4  1011.2  0.4  756  310           
18 24.05.18 тихо () {02}  20000 м    8/0 верхняя 
[Ci fib]
+0.7 -2.9 77 +1  1011.9  0.8  757  304  -5.2      64  равномерный
мокрый или
старый снег
100% 
21 24.05.18 150 (ЮВ) 1{03}  20000 м    10/0 средняя, верхняя 
[Ac lent|Ci fib]
+4.4 -3 59 +5  1012.9  757  301           
00 25.05.18 160 (Ю) 1{03}  20000 м    9/0 средняя, верхняя 
[Ac lent|Ci fib]
+5.6 -2.8 55 +6  1013.6  0.7  758  300           
03 25.05.18 210 (ЮЗ) 1{03}  20000 м    9/0 средняя, верхняя 
[Ac trans|Ci fib]
+6.7 -2.7 51 +8  1013.8  0.2  758  298           
09 25.05.18 040 (СВ) 1{04}  20000 м    8/0 средняя, верхняя 
[Ac trans|Ci fib]
+3.2 -2.2 68 +4  1014.9  0.9  759  303           
12 25.05.18 320 (СЗ) 1{02}  20000 м    10/0 средняя, верхняя 
[Ac trans|Ci fib]
+0.2 -1.5 88 +1  1015.4  0.5  759  306           
15 25.05.18 010 (С) 1{02}  20000 м    10/3 1000 м средняя, верхняя 
[Sc|Ac trans|Ci fib]
-0.6 -1.8 92 1015.3  -0.1  759  307           
18 25.05.18 тихо () {02}  20000 м    10/5 600 м кучево-дожд., средняя, верхняя 
[Cb cap|Ac trans|Ci fib]
+1.2 -1.7 81 +1  1015.6  0.3  759  305  -1.3      60  равномерный
мокрый или
старый снег
100% 
21 25.05.18 050 (СВ) 2{03}  20000 м  {ливн. осадки}  10/3 1000 м средняя 
[Sc|Ac trans]
+2.7 -1.8 72 +2  1015.8  0.2  760  303           
03 26.05.18 350 (С) 2{04}  20000 м    8/0 средняя, верхняя 
[Ac trans|Ci fib]
+6.8 -0.8 58 +7  1014.6  -0.9  759  298           
09 26.05.18 010 (С) 2{04}  20000 м    8/0 средняя, верхняя 
[Sc|Ac lent|Ci fib]
+3.6 -1.1 71 +3  1013.8  -0.1  758  302           
12 26.05.18 350 (С) 1{03}  20000 м    10/3 1000 м средняя, верхняя 
[Sc|Ac trans|Ci fib]
+0.3 -1.4 88 +1  1013.5  -0.3  758  305           
15 26.05.18 360 (С) 1{03}  20000 м    10/8 1000 м средняя 
[Sc|Ac und]
+0.5 -1.5 86 +1  1012.8  -0.7  757  305           
18 26.05.18 020 (С) 1{03}  20000 м    10/8 1000 м средняя 
[Sc|Ac und]
+1.7 -1.4 80 +2  1012.4  -0.4  757  303  +0.3      55  равномерный
мокрый или
старый снег
100% 
21 26.05.18 320 (СЗ) 2{04}  20000 м  в посл. час дождь  10/0 средняя, верхняя 
[Ac trans|Cs]
+3.3 -1.1 73 +3  1012.3  -0.1  757  301           
Время (UTC), дата Ветер
(°,м/с) 
Видим.   Явления Облачность Т
(°С)
Тd
(°С)
f(%) Тe
(°С)
Pmin
(гПа)
dP
(гПа)
Po
(мм)
O2
(г/м3)
Тmin Tmax R s Состояние
почвы

Для получения пояснительной информации подведите курсор к названию столбца.

ПОГОДА Марково - архив

Всё, что Вы хотите узнать о погоде Марково - удобно и подробно!

Выберите нужную дату (начиная с 1 января 2015* года) и нажмите кнопку "Найти".
Будут отображены архивные сводки погоды по пункту Марково, начиная с указанной даты.


Отображать данные в формате CSV (для использования в таблицах Excel)


Внимание! Наш архив погоды предназначен исключительно для личного некоммерческого использования в познавательных целях. Если Вам необходимы официальные справки о состоянии погоды (для производственных, юридических, коммерческих и т.п. целей), обращайтесь в органы Росгидромета.

*Примечание: данная дата относится к архиву по метеостанциям СССР (Россия, СНГ, Балтия).
Архив по метеостанциям Зарубежной Европы и Азии (кроме Китая) хранится 10 дней, по другим регионам земного шара (Китай, Африка, Америка, Австралия, Океания) - 1 день.

Марково - район местоположения метеостанции


Название, широта, долгота, высота метеостанции:
Марково 64.7°ш. 170.4°д. 26 м над ур. моря [Российская Федерация]

Дополнительная информация

В oтличие oт бoльшинства пoгoдных сайтoв мы публикуем пoдрoбную метеoинфoрмацию в детальнoм прoфессиoнальнoм фoрмате.

Характеристики температуры и влажнoсти вoздуха измеряются на высoте 2 м в тени вдали oт зданий и деревьев.
Скoрoсть ветра измеряется на высoте 10 м (на урoвне рoста челoвека скoрoсть ветра ниже в 1.5-2 раза). Если метеoстанция нахoдится в гoрoде или в лесу, тo скoрoсть ветра занижена на 2-4 м/с пo сравнению с oткрытым местoм. Скoрoсть ветра над акватoриями крупных рек и oзёр, а также на вершинах хoлмoв на 2-5 м/с выше, чем в oбычных услoвиях.
Атмoсфернoе давление в разных тoчках местнoсти мoжет значительнo oтличаться oт давления на метеoстанции, в зависимoсти oт услoвий рельефа (при пoдъёме на 10 м давление пoнижается примернo на 1 мм рт.ст.).